www.pogodaiklimat.ru

Погода и климат >> Архив погоды >> Россия >> Сахалинская область >> Погиби


ПОГОДА в Погибях

  • Прогноз погоды в Погибях
  • Монитор погоды в Погибях
  • Климат города

АРХИВ ПОГОДЫ в Погибях

Время (UTC), дата Ветер
(напр.,м/с)
 
Видим.   Явления Облачность Т
(С)
Тd
(С)
f
(%)
Тe
(С)
Тes
(С)
Комфортность P
(гПа)
Po
(гПа)
Тmin
(С)
Tmax
(С)
R
(мм)
R24
(мм)
S
(см)
00 14.09 Ю 4-6
{6}
50 км {ливн. осадки} 9/8 600 м
[Cb cap Ac trans]
+15.5 +14.6 94 +14 +15 1006.3 1005.5
03 14.09 Ю 4-6
{6}
50 км 9/5 600 м
[Cb cap Ac trans]
+16.7 +14.4 86 +16 +18 1005.4 1004.6 28
06 14.09 С 4-6
{6}
50 км {ливн. осадки} 9/6 600 м
[Cb cap Ac trans Ci sp]
+16.3 +14.2 87 +16 +16 1005.9 1005.1
09 14.09 С 4-6
{6}
50 км 8/6 600 м
[Cb cap Ac trans]
+14.2 +12.6 90 +13 +13 1006.2 1005.4 +17.1 1
12 14.09 С 4-6
{6}
50 км 5/0
[Ci sp]
+13.4 +10.7 84 +12 +12 1007.9 1007.1
15 14.09 С 4-6
{6}
50 км 3/0
[Ci sp]
+12.7 +11.2 91 +11 +11 1007.9 1007.1
18 14.09 СЗ 6-8
{10}
50 км 8/5 50 м
[Cb cap Ac trans]
+11.5 +10.5 94 +8 +8 1008.9 1008.1
21 14.09 СЗ 6-8
{10}
50 км 9/8 600 м
[Cb cap Ac trans]
+12.7 +9.4 80 +10 +10 1009.1 1008.3 +11.0
00 15.09 СЗ 2-2
{8}
50 км 9/8 600 м
[Cb cap Ac trans]
+13.8 +9.5 75 +13 +14 1009.5 1008.7
03 15.09 СЗ 4-4
{6}
50 км 8/6 600 м
[Cb cap Ac trans]
+15.6 +10.7 73 +15 +16 1008.1 1007.3
06 15.09 Ю 4-4
{6}
50 км 9/8 600 м
[Cb cap Ac trans]
+15.0 +11.7 81 +14 +14 1006.6 1005.8
09 15.09 Ю 4-4
{6}
50 км 9/6 600 м
[Cb cap Ac trans]
+14.8 +11.5 81 +14 +14 1004.5 1003.7 +16.0
12 15.09 Ю 4-4
{6}
50 км 10/10 600 м
[Cb cap]
+13.8 +11.2 84 +12 +12 1004.2 1003.4
15 15.09 Ю 4-4
{6}
50 км 10/10 600 м
[Cb cap]
+13.0 +10.5 85 +11 +11 1000.5 999.7
18 15.09 Ю 4-4
{16}
10 км слабый ливневой дождь 10/10 600 м
[Cb cap]
+12.5 +11.6 94 +10 +10 999.1 998.3
21 15.09 Ю 4-4
{6}
20 км {ливн. осадки} 10/10 600 м
[Cb cap]
+14.8 +14.3 97 +14 +14 998.1 997.3 +12.5 2
00 16.09 Ю 4-6
{6}
50 км {ливн. осадки} 6/3 600 м
[Cb cap Ac trans]
+15.6 +11.1 75 +15 +17 997.7 996.9
03 16.09 Ю 6-8
{8}
50 км 4/0
[Ci sp]
+16.0 +6.1 52 +15 +18 997.5 996.7
06 16.09 Ю 8-10
{10}
50 км 3/0
[Ci sp]
+17.0 +6.5 50 +16 +16 997.3 996.5
09 16.09 Ю 4-6
{10}
50 км 3/0
[Ci sp]
+14.6 +7.3 62 +13 +13 997.1 996.3 +17.6
12 16.09 З 4-6
{6}
20 км слабый ливневой дождь 10/10 600 м
[Cb cap]
+12.2 +9.9 86 +10 +10 997.4 996.6
15 16.09 Ю 6-8
{8}
50 км {ливн. осадки} 10/10 600 м
[Cb cap]
+12.0 +10.1 88 +9 +9 997.1 996.3
18 16.09 Ю 1-6
{8}
50 км {ливн. осадки} 8/3 600 м
[Cb cap Ac trans]
+11.4 +9.0 85 +11 +11 996.9 996.1
21 16.09 З 4-6
{6}
50 км 5/0
[Ac trans Ci sp]
+9.0 +6.9 87 +6 +6 996.9 996.1 +8.8 1
00 17.09 З 4-6
{6}
50 км 8/3 600 м
[Cb cap Ac trans Ci sp]
+11.8 +3.8 58 +10 +12 997.0 996.2
03 17.09 ЮЗ 6-8
{10}
50 км 6/3 600 м
[Cb cap Ac trans Ci sp]
+14.0 +4.5 53 +12 +14 996.9 996.1
06 17.09 Ю 4-4
{8}
50 км 9/8 600 м
[Cb cap Ac trans]
+12.8 +5.3 60 +11 +11 996.2 995.4
09 17.09 СЗ 2-2
{4}
50 км 8/5 600 м
[Cb cap Ac trans]
+12.6 +4.3 57 +12 +12 996.6 995.8 +14.4
12 17.09 ЮВ 2-2
{2}
50 км 6/4 600 м
[Cb cap Ac trans]
+9.5 +6.3 80 +8 +8 996.9 996.1
15 17.09 Ю 2-2
{2}
50 км 10/10 600 м
[Cb cap]
+9.4 +7.9 90 +8 +8 996.9 996.1
18 17.09 ЮЗ 2-4
{4}
20 км слабый ливневой дождь 10/10 600 м
[Cb cap]
+9.0 +7.7 92 +7 +7 996.9 996.1
21 17.09 СЗ 4-6
{6}
50 км {ливн. осадки} 8/6 600 м
[Cb cap Ac trans]
+10.1 +6.5 78 +8 +8 997.7 996.9 +8.8 2
00 18.09 СЗ 4-6
{6}
50 км {ливн. осадки} 8/3 600 м
[Cb cap Ac trans]
+10.8 +6.1 73 +8 +10 998.1 997.3
03 18.09 З 4-6
{6}
50 км слабый ливневой дождь 9/8 600 м
[Cb cap Ac trans]
+11.5 +6.7 72 +9 +10 997.0 996.2
06 18.09 СЗ 6-8
{10}
50 км слабый ливневой дождь 9/9 600 м
[Cb cap]
+11.0 +6.3 73 +8 +8 996.6 995.8
09 18.09 СЗ 6-8
{10}
20 км слабый ливневой дождь 9/9 600 м
[Cb cap]
+10.6 +7.7 82 +7 +7 996.6 995.8 +11.8 2
12 18.09 С 6-8
{10}
20 км слабый ливневой дождь 9/9 600 м
[Cb cap]
+10.4 +9.0 91 +7 +7 996.2 995.4
15 18.09 С 6-8
{10}
20 км слабый ливневой дождь 10/10 600 м
[Cb cap]
+10.2 +9.4 95 +7 +7 995.7 994.9
18 18.09 С 6-8
{10}
20 км {ливн. осадки} 10/10 600 м
[Cb cap]
+9.8 +8.6 92 +6 +6 995.1 994.3
21 18.09 С 6-8
{10}
20 км пыльные вихри {ливн. осадки} 10/10 600 м
[Cb cap]
+9.6 +9.0 96 +6 +6 995.4 994.6 +9.5 3
00 19.09 С 6-8
{10}
20 км слабый ливневой дождь 10/10 600 м
[Cb cap]
+11.0 +10.6 97 +8 +8 996.6 995.8
03 19.09 С 8-8
{12}
50 км {ливн. осадки} 10/10 600 м
[Cb cap]
+12.0 +6.5 69 +9 +9 997.1 996.3
06 19.09 СЗ 8-10
{12}
50 км {ливн. осадки} 10/10 600 м
[Cb cap]
+11.6 +6.1 69 +8 +8 997.8 997.0
09 19.09 СЗ 8-10
{12}
50 км 10/10 600 м
[Cb cap]
+12.0 +5.6 65 +9 +9 997.8 997.0 +12.4 2
12 19.09 С 6-8
{10}
20 км 10/10 600 м
[Cb cap]
+11.6 +6.8 72 +9 +9 998.3 997.5
15 19.09 С 6-8
{10}
50 км 10/10 600 м
[Cb cap]
+11.8 +4.8 62 +9 +9 999.1 998.3
18 19.09 С 6-8
{10}
50 км 10/10 600 м
[Cb cap]
+11.3 +4.4 62 +9 +9 999.8 999.0
21 19.09 С 6-8
{10}
50 км 10/10 600 м
[Cb cap]
+11.7 +5.9 68 +9 +9 1000.5 999.7 +10.3
00 20.09 С 8-10
{10}
20 км слабый ливневой дождь 10/10 600 м
[Cb cap]
+11.8 +11.0 95 +8 +8 1001.3 1000.5
03 20.09 С 8-10
{10}
20 км слабый ливневой дождь 10/10 600 м
[Cb cap]
+13.0 +11.7 92 +10 +10 1001.8 1001.0
06 20.09 С 6-8
{10}
20 км слабый ливневой дождь 10/10 600 м
[Cb cap]
+13.8 +12.5 92 +12 +12 1002.9 1002.1
09 20.09 С 4-6
{8}
20 км слабый ливневой дождь 9/9 600 м
[Cb cap]
+10.4 +9.6 95 +8 +8 1004.5 1003.7 +14.1 2
12 20.09 С 6-8
{8}
20 км слабый ливневой дождь 10/10 600 м
[Cb cap]
+9.4 +8.6 95 +6 +6 1005.4 1004.6
15 20.09 З 4-6
{8}
50 км {ливн. осадки} 9/9 600 м
[Cb cap]
+10.0 +8.4 90 +7 +7 1006.2 1005.4
18 20.09 С 6-8
{8}
50 км {ливн. осадки} 8/4 600 м
[Cb cap Ac trans]
+9.8 +7.5 86 +6 +6 1006.5 1005.7
21 20.09 С 6-8
{8}
50 км 8/3 600 м
[Cb cap Ac trans Ci sp]
+10.2 +7.5 83 +7 +7 1006.5 1005.7 +9.2 1

 

Местоположение метеостанции Погиби (Сахалинская область, Россия): широта 52.22 долгота 141.60 высота над уровнем моря 6 м.

В архиве по умолчанию представлена погода в Погибях за последнюю неделю. Архивные данные за месяц целиком и за предыдущие месяцы, начиная с января 2011 года, Вы можете получить, выбрав интересующий диапазон дат из раскрывающегося списка и нажав кнопку "Ввод!".


*Определитесь, кто Вы:
робот инопланетянин человек

Внимание! Время в таблицах - всемирное. Для получения местного времени необходимо прибавить поправку, которая в Погибях равна 11 ч.

Смотрите также архив погоды в соседних городах и на ближайших метеорологических станциях:

Погода в Джаоре (Хабаровский край, Россия) (57 км)
Погода в Богородском (Хабаровский край, Россия) (84 км)
Погода в Вал (Сахалинская область, Россия) (96 км)
Погода в Ныше (Сахалинская область, Россия) (108 км)
Погода в Ногликах (Сахалинская область, Россия) (108 км)
Погода в Мариинском (Хабаровский край, Россия) (116 км)
Погода в Николаевск-на-Амуре (Хабаровский край, Россия) (120 км)
Погода в Байдукове (Хабаровский край, Россия) (121 км)
Погода в Александровск-Сахалинском (Сахалинская область, Россия) (151 км)
Погода в Москальво (Сахалинская область, Россия) (162 км)

Пояснения к столбцам:

Ветер - указаны скорость ветра в м/с - средняя за 10 мин, порывы в срок и между сроками (в фигурных скобках) и направление, откуда дует ветер: С - северный, СВ - северо-восточный, В - восточный, ЮВ - юго-восточный, Ю - южный, ЮЗ - юго-западный, З - западный, СЗ - северо-западный.
Видимость - горизонтальная дальность видимости в метрах или километрах. При видимости от 1 до 10 км при отсутствии осадков обычно наблюдается дымка, при ухудшении видимости до 1 км и менее - туман. В сухую погоду видимость может ухудшаться дымом, пылью или мглою.
Явления - указаны атмосферные явления, наблюдавшиеся в срок или в последний час перед сроком; фигурными скобками обозначены явления, наблюдавшиеся между сроками (за 1-3 часа до срока); квадратными скобками обозначены град или гололедные отложения с указанием их диаметра в мм.
Облачность - указаны через наклонную черту общая и нижняя облачность в баллах и высота нижней границы облаков в метрах; квадратными скобками обозначены формы облаков: Ci - перистые, Cs - перисто-слоистые, Cc - перисто-кучевые, Ac - высококучевые, As - высокослоистые, Sc - слоисто-кучевые, Ns - слоисто-дождевые, Cu - кучевые, Cb - кучево-дождевые. Подробнее классификацию облаков см. в Атласе облаков (PDF).
T - Температура воздуха - температура, измеренная на высоте 2 м над землей.
Td - Температура точки росы - температура, при понижении до которой содержащийся в воздухе водяной пар достигнет насыщения.
f - Относительная влажность воздуха - влажноcть воздуха, измеренная на высоте 2 м над землей.
Te - Эффективная температура - температура, которую ощущает одетый по сезону человек в тени. Характеристика душности погоды. При расчете учитывается влияние влажности воздуха и скорости ветра на теплоощущения человека.
Tes - Эффективная температура на солнце - температура, которую ощущает человек, с поправкой на солнечный нагрев. Характеристика знойности погоды. Зависит от высоты солнца над горизонтом, облачности и скорости ветра. Ночью, в пасмурную погоду, а также при ветре 12 м/с и более поправка равна нулю.
P - Атмосферное давление - приведенное к уровню моря атмосферное давление.
Po - Атмосферное давление - измеренное на уровне метеостанции атмосферное давление.
Tmin - Минимальная температура - минимум температуры воздуха на высоте 2 м над землей.
Tmax - Максимальная температура - максимум температуры воздуха на высоте 2 м над землей.
R - Количество осадков - Количество выпавших осадков за период времени, мм. При наведении курсора мыши на число - период времени, за который выпало указанное количество осадков.
R24 - Количество осадков - Количество выпавших осадков за 24 часа, мм.
S - Снежный покров - Высота снежного покрова, см. При наведении курсора мыши на число - состояние снежного покрова и степень покрытия местности в баллах.